HB9FVK-10 Weather Reports


Display with metric or nautical units.
time (UTC)temp
F
wind
direction
speed
MPH
gust
MPH
rain 1hr
in
rain 24hr
in
rain mn
in
humidity
%
barometer
mb
20260507092057 54 230 3.0 5.0 0.00 0.00 0.00 80 1019.6
20260507091056 52 235 2.0 3.0 0.00 0.00 0.00 86 1019.5
20260507090055 52 247 4.0 8.0 0.00 0.00 0.00 84 1019.6
20260507085053 52 298 3.0 6.0 0.00 0.00 0.00 85 1019.5
20260507084052 51 321 3.0 6.0 0.00 0.00 0.00 88 1019.5
20260507083051 51 0.0 4.0 0.00 0.00 0.00 87 1019.5
20260507082051 51 238 2.0 4.0 0.00 0.00 0.00 87 1019.5
20260507081049 51 90 3.0 4.0 0.00 0.00 0.00 91 1019.5
20260507080048 50 126 4.0 6.0 0.00 0.00 0.00 92 1019.4
20260507075046 50 151 3.0 4.0 0.00 0.00 0.00 93 1019.5
20260507074045 0 0.0 0.0 0.00 0.00 0.00 1019.4
20260507073044 0 0.0 0.0 0.00 0.00 0.00 1019.3
20260507072103 0 0.0 0.0 0.00 0.00 0.00 1019.2
20260507071041 0 0.0 0.0 0.00 0.00 0.00 1019.3
20260507070101 0 0.0 0.0 0.00 0.00 0.00 1019.2
20260507065039 0 0.0 0.0 0.00 0.00 0.00 1019.1
20260507064038 48 125 1.0 2.0 0.00 0.00 0.00 95 1019.1
20260507063057 48 131 2.0 4.0 0.00 0.00 0.00 95 1018.9
20260507062037 48 154 2.0 3.0 0.00 0.00 0.00 96 1018.9
20260507061035 48 122 2.0 4.0 0.00 0.00 0.00 95 1018.8
20260507060034 48 162 3.0 5.0 0.00 0.00 0.00 95 1018.7
20260507055033 47 129 5.0 5.0 0.00 0.00 0.00 96 1018.7
20260507054031 47 153 3.0 5.0 0.00 0.00 0.00 96 1018.5
20260507053030 47 147 3.0 5.0 0.00 0.00 0.00 97 1018.4
20260507052030 47 44 2.0 4.0 0.00 0.00 0.00 97 1018.3
20260507051027 47 158 3.0 4.0 0.00 0.00 0.00 97 1018.3
20260507050027 47 146 2.0 3.0 0.00 0.00 0.00 97 1018.3
20260507045026 47 112 3.0 5.0 0.00 0.00 0.00 97 1018.1
20260507044044 46 115 3.0 3.0 0.00 0.00 0.00 97 1017.9
20260507043023 46 154 3.0 4.0 0.00 0.00 0.00 97 1018.0
20260507042022 46 132 3.0 5.0 0.00 0.00 0.00 98 1017.9
20260507041020 46 131 4.0 4.0 0.00 0.00 0.00 98 1017.8
20260507040020 46 131 4.0 4.0 0.00 0.00 0.00 98 1017.7
20260507035018 46 122 3.0 4.0 0.00 0.00 0.00 98 1017.7
20260507034017 46 95 3.0 5.0 0.00 0.00 0.00 98 1017.6
20260507033016 46 134 3.0 4.0 0.00 0.00 0.00 97 1017.5
20260507032115 46 129 3.0 4.0 0.00 0.00 0.00 97 1017.6
20260507031114 46 117 2.0 4.0 0.00 0.00 0.00 97 1017.5
20260507030113 46 138 2.0 4.0 0.00 0.00 0.00 98 1017.5
20260507025231 45 106 2.0 4.0 0.00 0.00 0.00 98 1017.5
20260507024110 45 94 1.0 3.0 0.00 0.00 0.00 98 1017.5
20260507023109 45 159 3.0 4.0 0.00 0.00 0.00 98 1017.4
20260507022108 45 89 2.0 3.0 0.00 0.00 0.00 97 1017.3
20260507021107 45 76 2.0 4.0 0.00 0.00 0.00 97 1017.3
20260507020126 0 0.0 0.0 0.00 0.00 0.00 1017.4
20260507015124 0 0.0 0.0 0.00 0.00 0.00 1017.3
20260507014102 44 327 2.0 3.0 0.00 0.00 0.00 97 1017.2
20260507013102 44 97 4.0 6.0 0.00 0.00 0.00 97 1017.2
20260507012100 44 128 1.0 3.0 0.00 0.00 0.00 97 1016.9
20260507011100 44 111 0.0 4.0 0.00 0.00 0.00 97 1017.0
20260507010058 44 140 2.0 3.0 0.00 0.00 0.00 97 1016.9
20260507005057 44 122 2.0 4.0 0.00 0.00 0.00 97 1017.0
20260507004056 44 124 2.0 4.0 0.00 0.00 0.00 97 1016.9
20260507003054 44 147 3.0 4.0 0.00 0.00 0.00 97 1016.9
20260507002134 44 88 1.0 2.0 0.00 0.00 0.00 97 1016.9
20260507001052 43 144 2.0 6.0 0.00 0.00 0.00 97 1016.9
20260507000112 43 142 4.0 6.0 0.00 0.00 0.00 97 1017.0
20260506235051 43 148 4.0 6.0 0.00 0.00 0.00 97 1017.0
20260506234129 43 142 4.0 6.0 0.00 0.00 0.00 97 1017.1
20260506233047 43 148 5.0 6.0 0.00 0.00 0.00 97 1017.0
20260506232046 43 140 3.0 5.0 0.00 0.00 0.00 97 1016.9
20260506231045 43 151 3.0 3.0 0.00 0.00 0.00 97 1016.8
20260506230044 43 152 4.0 4.0 0.00 0.00 0.00 97 1016.7
20260506225043 43 126 3.0 3.0 0.00 0.00 0.00 97 1016.7
20260506224042 43 150 3.0 3.0 0.00 0.00 0.00 97 1016.8
20260506223040 43 151 3.0 3.0 0.00 0.00 0.00 97 1016.7
20260506222039 44 151 3.0 4.0 0.00 0.00 0.00 97 1016.7
20260506221038 44 122 3.0 4.0 0.00 0.00 0.00 96 1016.6
20260506220036 44 86 2.0 3.0 0.00 0.00 0.00 96 1016.7
20260506215035 44 88 1.0 3.0 0.00 0.00 0.00 96 1016.6
20260506214035 45 46 1.0 3.0 0.00 0.00 0.00 95 1016.5
20260506213053 45 163 2.0 4.0 0.00 0.00 0.00 95 1016.5
20260506212032 45 161 5.0 8.0 0.00 0.00 0.00 95 1016.6
20260506211031 45 154 5.0 6.0 0.00 0.00 0.00 96 1016.4
20260506210030 45 149 5.0 6.0 0.00 0.00 0.00 96 1016.2
20260506205029 45 123 3.0 4.0 0.00 0.00 0.00 95 1016.3
20260506204027 45 141 5.0 6.0 0.00 0.00 0.00 95 1016.4
20260506203026 46 144 5.0 7.0 0.00 0.00 0.00 95 1016.3
20260506202025 46 157 6.0 8.0 0.00 0.00 0.00 95 1016.0
20260506201024 46 163 5.0 7.0 0.00 0.00 0.00 95 1015.9
20260506200022 46 131 4.0 5.0 0.00 0.00 0.00 94 1015.8
20260506195021 46 149 4.0 5.0 0.00 0.00 0.00 94 1015.8
20260506194019 47 115 3.0 5.0 0.00 0.00 0.00 93 1015.4
20260506193018 47 153 3.0 5.0 0.00 0.00 0.00 92 1015.3
20260506192037 48 179 4.0 7.0 0.00 0.00 0.00 92 1015.3
20260506191016 48 164 5.0 6.0 0.00 0.00 0.00 92 1015.3
20260506190116 48 164 4.0 5.0 0.00 0.00 0.00 91 1015.2
20260506185114 49 159 4.0 5.0 0.00 0.00 0.00 90 1015.3
20260506184113 49 165 3.0 4.0 0.00 0.00 0.00 89 1015.0
20260506183152 49 164 3.0 5.0 0.00 0.00 0.00 89 1014.8
20260506182110 50 166 3.0 6.0 0.00 0.00 0.00 87 1014.8
20260506181109 51 164 3.0 4.0 0.00 0.00 0.00 85 1014.7
20260506180107 52 143 3.0 4.0 0.00 0.00 0.00 83 1014.7
20260506175127 51 147 3.0 5.0 0.00 0.00 0.00 81 1014.7
20260506174105 51 211 2.0 5.0 0.00 0.00 0.00 81 1014.5
20260506173103 52 143 2.0 3.0 0.00 0.00 0.00 81 1014.4
20260506172102 52 227 2.0 4.0 0.00 0.00 0.00 80 1014.4
20260506171121 52 258 4.0 8.0 0.00 0.00 0.00 79 1014.3
20260506165119 53 76 1.0 3.0 0.00 0.00 0.00 81 1014.1
20260506164058 53 75 2.0 6.0 0.00 0.00 0.00 81 1014.1
20260506163117 52 148 3.0 4.0 0.00 0.00 0.00 80 1014.3
20260506162056 52 213 2.0 5.0 0.00 0.00 0.00 80 1014.3
20260506161054 53 239 2.0 5.0 0.00 0.00 0.00 79 1014.3
20260506160114 52 264 3.0 6.0 0.00 0.00 0.00 80 1014.1
20260506155052 52 266 3.0 8.0 0.00 0.00 0.00 79 1014.2
20260506154050 52 243 3.0 7.0 0.00 0.00 0.00 79 1014.3
20260506153109 52 291 4.0 10.0 0.00 0.00 0.00 78 1014.3
20260506152049 53 277 5.0 9.0 0.00 0.00 0.00 78 1014.3
20260506151048 52 208 3.0 5.0 0.00 0.00 0.00 81 1014.3
20260506150047 52 266 3.0 7.0 0.00 0.00 0.00 81 1014.3
20260506145045 52 202 2.0 2.0 0.00 0.00 0.00 83 1014.1
20260506144104 52 203 2.0 7.0 0.00 0.00 0.00 83 1014.2
20260506143043 52 229 4.0 7.0 0.00 0.00 0.00 82 1014.1
20260506142142 52 133 1.0 4.0 0.00 0.00 0.00 84 1014.2
20260506141040 52 177 3.0 6.0 0.00 0.00 0.00 82 1014.0
20260506140040 52 338 1.0 4.0 0.00 0.00 0.00 84 1013.9
20260506135037 52 127 3.0 4.0 0.00 0.00 0.00 85 1014.0
20260506134057 51 166 2.0 6.0 0.00 0.00 0.00 86 1014.1
20260506133035 51 150 3.0 5.0 0.00 0.00 0.00 87 1014.0
20260506132114 51 209 3.0 7.0 0.00 0.00 0.00 88 1014.0
20260506131033 50 108 2.0 4.0 0.00 0.00 0.00 89 1014.0
20260506130033 50 87 2.0 4.0 0.00 0.00 0.00 89 1013.9
20260506125030 50 213 2.0 5.0 0.00 0.00 0.00 90 1013.9
20260506124029 50 120 3.0 4.0 0.00 0.00 0.00 91 1014.0
20260506123028 50 201 4.0 4.0 0.00 0.00 0.00 90 1013.7
20260506122027 50 198 8.0 10.0 0.00 0.00 0.00 90 1013.7
20260506121026 50 252 7.0 14.0 0.00 0.00 0.00 89 1013.6
20260506120024 50 283 8.0 15.0 0.00 0.00 0.00 90 1013.5
20260506115044 51 261 5.0 11.0 0.00 0.00 0.00 91 1013.4
20260506114022 51 239 6.0 13.0 0.00 0.00 0.00 91 1013.2
20260506113021 51 196 4.0 7.0 0.00 0.00 0.00 89 1013.1
20260506112020 53 242 9.0 20.0 0.00 0.00 0.00 87 1012.9
20260506111019 54 290 4.0 11.0 0.00 0.00 0.00 86 1012.6
20260506110058 54 290 6.0 12.0 0.00 0.00 0.00 85 1012.5
20260506105016 55 320 5.0 11.0 0.00 0.00 0.00 84 1012.3
20260506104115 55 292 7.0 14.0 0.00 0.00 0.00 83 1012.3
20260506103114 55 302 4.0 9.0 0.00 0.00 0.00 84 1012.2
20260506102112 55 347 3.0 7.0 0.00 0.00 0.00 84 1012.3
20260506101112 55 314 4.0 8.0 0.00 0.00 0.00 85 1012.2
20260506100110 54 4 4.0 6.0 0.00 0.00 0.00 85 1012.1
20260506095110 54 324 4.0 6.0 0.00 0.00 0.00 87 1012.1
20260506094108 54 341 3.0 6.0 0.00 0.00 0.00 87 1012.0
20260506093107 53 157 1.0 2.0 0.00 0.00 0.00 87 1012.2